• Em Portugal
  • Lista de países
  • Para 7 dias
  • Temperatura da água
  • Mapas de satélite
  • Mapa do tempo
  • Widgets de tempo
  • user-avatar
    Iniciar Sessão

    Previsão horária em Rîbniţa

    Hoje, 15 Dezembro, Sexta-feira

    Tempo Temperatura Precipitação Vento Pressão Humidade
    00:00 +4°C° 0 mm 2 m/s 746 mmHg 88%
    01:00 +4°C° 0 mm 2 m/s 746 mmHg 87%
    02:00 +4°C° 0 mm 1 m/s 746 mmHg 90%
    03:00 +4°C° 0 mm 1 m/s 746 mmHg 90%
    04:00 +3°C° 0 mm 2 m/s 746 mmHg 90%
    05:00 +3°C° 0 mm 2 m/s 746 mmHg 90%
    06:00 +3°C° 0 mm 2 m/s 746 mmHg 90%
    07:00 +3°C° 0 mm 2 m/s 746 mmHg 90%
    08:00 +3°C° 0 mm 2 m/s 746 mmHg 90%
    09:00 +3°C° 0 mm 3 m/s 746 mmHg 85%
    10:00 +4°C° 0 mm 3 m/s 746 mmHg 81%
    11:00 +5°C° 0 mm 3 m/s 746 mmHg 77%
    12:00 +6°C° 0 mm 4 m/s 746 mmHg 76%
    13:00 +6°C° 0 mm 4 m/s 746 mmHg 74%
    14:00 +7°C° 0 mm 4 m/s 745 mmHg 73%
    15:00 +7°C° 0 mm 4 m/s 745 mmHg 74%
    16:00 +6°C° 0 mm 4 m/s 745 mmHg 76%
    17:00 +6°C° 0 mm 4 m/s 745 mmHg 77%
    18:00 +6°C° 0 mm 5 m/s 745 mmHg 75%
    19:00 +6°C° 0 mm 5 m/s 745 mmHg 73%
    20:00 +7°C° 0 mm 5 m/s 745 mmHg 72%
    21:00 +6°C° 0 mm 5 m/s 745 mmHg 73%
    22:00 +6°C° 0 mm 5 m/s 745 mmHg 74%
    23:00 +6°C° 0 mm 5 m/s 745 mmHg 75%

    Amanhã, 16 Dezembro, Sábado

    Tempo Temperatura Precipitação Vento Pressão Humidade
    00:00 +6°C° 0 mm 5 m/s 745 mmHg 77%
    01:00 +5°C° 0 mm 5 m/s 744 mmHg 80%
    02:00 +5°C° 0 mm 5 m/s 744 mmHg 83%
    03:00 +5°C° 0 mm 5 m/s 743 mmHg 86%
    04:00 +5°C° 0 mm 6 m/s 743 mmHg 89%
    05:00 +5°C° 0 mm 7 m/s 742 mmHg 92%
    06:00 +5°C° 0 mm 7 m/s 741 mmHg 91%
    07:00 +6°C° 0 mm 7 m/s 741 mmHg 91%
    08:00 +6°C° 0 mm 8 m/s 740 mmHg 90%
    09:00 +7°C° 0 mm 8 m/s 740 mmHg 85%
    10:00 +9°C° 0 mm 8 m/s 740 mmHg 81%
    11:00 +9°C° 0 mm 8 m/s 740 mmHg 76%
    12:00 +10°C° 0 mm 8 m/s 740 mmHg 72%
    13:00 +11°C° 0 mm 7 m/s 740 mmHg 69%
    14:00 +11°C° 0 mm 6 m/s 740 mmHg 66%
    15:00 +11°C° 0 mm 6 m/s 740 mmHg 68%
    16:00 +10°C° 0 mm 5 m/s 740 mmHg 71%
    17:00 +10°C° 0 mm 4 m/s 741 mmHg 74%
    18:00 +10°C° 0,3 mm 4 m/s 741 mmHg 77%
    19:00 +10°C° 0,3 mm 3 m/s 742 mmHg 80%
    20:00 +9°C° 0,3 mm 3 m/s 742 mmHg 83%
    21:00 +9°C° 0,3 mm 3 m/s 743 mmHg 84%
    22:00 +8°C° 0,3 mm 3 m/s 744 mmHg 85%
    23:00 +8°C° 0,3 mm 3 m/s 744 mmHg 86%

    Depois de amanhã, 17 Dezembro, Domingo

    Tempo Temperatura Precipitação Vento Pressão Humidade
    00:00 +6°C° 0,1 mm 4 m/s 745 mmHg 84%
    01:00 +6°C° 0,1 mm 4 m/s 745 mmHg 83%
    02:00 +5°C° 0,1 mm 4 m/s 746 mmHg 81%
    03:00 +5°C° 0 mm 4 m/s 746 mmHg 81%
    04:00 +3°C° 0 mm 5 m/s 746 mmHg 81%
    05:00 +3°C° 0 mm 5 m/s 747 mmHg 81%
    06:00 +2°C° 0,1 mm 5 m/s 747 mmHg 81%
    07:00 +2°C° 0,1 mm 5 m/s 748 mmHg 81%
    08:00 +2°C° 0,1 mm 5 m/s 748 mmHg 81%
    09:00 +2°C° 0 mm 5 m/s 748 mmHg 79%
    10:00 +2°C° 0 mm 5 m/s 749 mmHg 78%
    11:00 +2°C° 0 mm 6 m/s 749 mmHg 76%
    12:00 +2°C° 0 mm 6 m/s 749 mmHg 75%
    13:00 +2°C° 0 mm 6 m/s 749 mmHg 73%
    14:00 +2°C° 0 mm 6 m/s 749 mmHg 72%
    15:00 +2°C° 0 mm 5 m/s 750 mmHg 72%
    16:00 +1°C° 0 mm 5 m/s 750 mmHg 72%
    17:00 +1°C° 0 mm 4 m/s 751 mmHg 73%
    18:00 +1°C° 0 mm 5 m/s 751 mmHg 72%
    19:00 +1°C° 0 mm 5 m/s 751 mmHg 71%
    20:00 0°C° 0 mm 5 m/s 752 mmHg 70%
    21:00 0°C° 0 mm 5 m/s 752 mmHg 71%
    22:00 0°C° 0 mm 4 m/s 752 mmHg 72%
    23:00 0°C° 0 mm 4 m/s 753 mmHg 72%

    18 Dezembro, Segunda-feira

    Tempo Temperatura Precipitação Vento Pressão Humidade
    00:00 -1°C° 0 mm 4 m/s 753 mmHg 74%
    01:00 -1°C° 0 mm 4 m/s 753 mmHg 76%
    02:00 0°C° 0 mm 3 m/s 753 mmHg 78%
    03:00 -1°C° 0 mm 3 m/s 754 mmHg 80%
    04:00 -1°C° 0 mm 3 m/s 754 mmHg 81%
    05:00 -1°C° 0 mm 3 m/s 754 mmHg 82%
    06:00 -1°C° 0 mm 3 m/s 754 mmHg 82%
    07:00 -1°C° 0 mm 3 m/s 754 mmHg 83%
    08:00 -2°C° 0 mm 3 m/s 755 mmHg 83%
    09:00 -1°C° 0 mm 3 m/s 755 mmHg 79%
    10:00 0°C° 0 mm 3 m/s 755 mmHg 74%
    11:00 +1°C° 0 mm 3 m/s 755 mmHg 69%
    12:00 +1°C° 0 mm 3 m/s 755 mmHg 67%
    13:00 +1°C° 0 mm 3 m/s 755 mmHg 65%
    14:00 +2°C° 0 mm 3 m/s 755 mmHg 63%
    15:00 +1°C° 0 mm 3 m/s 755 mmHg 67%
    16:00 +1°C° 0 mm 2 m/s 755 mmHg 71%
    17:00 -1°C° 0 mm 2 m/s 756 mmHg 75%
    18:00 -1°C° 0 mm 2 m/s 756 mmHg 75%
    19:00 -1°C° 0 mm 2 m/s 756 mmHg 76%
    20:00 -1°C° 0 mm 2 m/s 757 mmHg 76%
    21:00 -1°C° 0 mm 2 m/s 757 mmHg 75%
    22:00 -1°C° 0 mm 2 m/s 757 mmHg 75%
    23:00 -2°C° 0 mm 2 m/s 758 mmHg 74%

    19 Dezembro, Terça-feira

    Tempo Temperatura Precipitação Vento Pressão Humidade
    00:00 -2°C° 0 mm 3 m/s 758 mmHg 75%
    01:00 -2°C° 0 mm 3 m/s 758 mmHg 75%
    02:00 -2°C° 0 mm 3 m/s 758 mmHg 75%
    03:00 -2°C° 0 mm 3 m/s 758 mmHg 76%
    04:00 -2°C° 0 mm 3 m/s 758 mmHg 77%
    05:00 -2°C° 0 mm 3 m/s 759 mmHg 77%
    06:00 -2°C° 0 mm 3 m/s 759 mmHg 78%
    07:00 -2°C° 0 mm 3 m/s 759 mmHg 79%
    08:00 -2°C° 0 mm 3 m/s 760 mmHg 79%
    09:00 -1°C° 0 mm 3 m/s 760 mmHg 74%
    10:00 0°C° 0 mm 3 m/s 761 mmHg 68%
    11:00 -1°C° 0 mm 4 m/s 761 mmHg 63%
    12:00 0°C° 0 mm 4 m/s 761 mmHg 60%
    13:00 0°C° 0 mm 4 m/s 761 mmHg 57%
    14:00 0°C° 0 mm 4 m/s 761 mmHg 54%
    15:00 0°C° 0 mm 3 m/s 761 mmHg 59%
    16:00 0°C° 0 mm 3 m/s 762 mmHg 63%
    17:00 -1°C° 0 mm 2 m/s 762 mmHg 67%
    18:00 -1°C° 0 mm 2 m/s 762 mmHg 70%
    19:00 -2°C° 0 mm 2 m/s 763 mmHg 72%
    20:00 -2°C° 0 mm 2 m/s 763 mmHg 74%
    21:00 -2°C° 0 mm 2 m/s 763 mmHg 74%
    22:00 -2°C° 0 mm 2 m/s 763 mmHg 75%
    23:00 -2°C° 0 mm 2 m/s 763 mmHg 76%

    20 Dezembro, Quarta-feira

    Tempo Temperatura Precipitação Vento Pressão Humidade
    00:00 -2°C° 0 mm 2 m/s 763 mmHg 76%
    01:00 -2°C° 0 mm 3 m/s 763 mmHg 76%
    02:00 -2°C° 0 mm 3 m/s 763 mmHg 76%
    03:00 -2°C° 0 mm 3 m/s 763 mmHg 75%
    04:00 -2°C° 0 mm 2 m/s 763 mmHg 74%
    05:00 -2°C° 0 mm 2 m/s 762 mmHg 73%
    06:00 -2°C° 0 mm 2 m/s 763 mmHg 71%
    07:00 -2°C° 0 mm 2 m/s 763 mmHg 69%
    08:00 -2°C° 0 mm 3 m/s 763 mmHg 67%
    09:00 -2°C° 0 mm 3 m/s 763 mmHg 62%
    10:00 -1°C° 0 mm 3 m/s 763 mmHg 56%
    11:00 -1°C° 0 mm 3 m/s 763 mmHg 51%
    12:00 -1°C° 0 mm 3 m/s 762 mmHg 51%
    13:00 -1°C° 0 mm 3 m/s 762 mmHg 51%
    14:00 0°C° 0 mm 3 m/s 762 mmHg 51%
    15:00 -1°C° 0 mm 3 m/s 762 mmHg 56%
    16:00 -2°C° 0 mm 2 m/s 762 mmHg 60%
    17:00 -2°C° 0 mm 2 m/s 762 mmHg 65%
    18:00 -2°C° 0 mm 2 m/s 762 mmHg 67%
    19:00 -2°C° 0 mm 2 m/s 762 mmHg 68%
    20:00 -2°C° 0 mm 2 m/s 762 mmHg 69%
    21:00 -2°C° 0 mm 2 m/s 762 mmHg 70%
    22:00 -2°C° 0 mm 2 m/s 762 mmHg 71%
    23:00 -2°C° 0 mm 2 m/s 762 mmHg 71%
    Mostrar mais